Weather Service Report


827 
ASUS45 KSLC 301910
RWRUT 

UTAH REGIONAL WEATHER ROUNDUP
NATIONAL WEATHER SERVICE SALT LAKE CITY UT
1200 PM MST FRI JAN 30 2015

UTZ001>011-023>025-302000-

NORTHERN UTAH
  
CITY           SKY/WX    TMP DP  RH WIND       PRES   REMARKS
BRIGHAM CITY   CLOUDY    44  34  67 CALM      30.10F                  
HILL AFB       CLOUDY    45  29  55 VRB5      30.09F                  
LOGAN          SUNNY     37  33  85 CALM      30.14F                  
OGDEN          CLOUDY    43  35  73 W6        30.09F                  
PROVO AIRPORT  CLOUDY    41  36  81 NW7       30.07F                  
SALT LAKE CITY CLOUDY    42  35  76 CALM      30.09F                  
VERNAL         CLOUDY    39  35  86 S3        30.15F                  
WENDOVER       CLOUDY    45  36  70 SW3       30.12F                  
HEBER CITY     CLOUDY    36  32  87 CALM      30.10F                  
WEST JORDAN    CLOUDY    41  37  87 CALM      30.10F                  

$$

UTZ012>022-026-027-302000-

SOUTHERN/CENTRAL UTAH
  
CITY           SKY/WX    TMP DP  RH WIND       PRES   REMARKS
BLANDING       CLOUDY    33  33 100 CALM      30.20F                  
BRYCE CANYON   LGT SNOW  32  30  92 SE6       30.04F WCI  26          
CEDAR CITY     LGT RAIN  40  37  89 CALM      29.98F                  
DELTA          CLOUDY    42  41  95 N7        30.05F                  
HANKSVILLE     CLOUDY    43  39  87 CALM      30.11F                  
MILFORD        LGT RAIN  40  38  93 N16       30.02F WCI  31          
MOAB/CYNLANDS  CLOUDY    43  39  86 S7        30.09F                  
PRICE          LGT RAIN  40  37  89 CALM      30.10F                  
ST GEORGE      CLOUDY    48  43  81 W3        29.98F                  
KANAB          CLOUDY    39  36  87 N8G17     30.03F WCI  34          

$$

REGIONAL REPORTS     COLORADO/ARIZONA
  
CITY           SKY/WX    TMP DP  RH WIND       PRES   REMARKS
CRAIG, CO      CLOUDY    36  31  82 CALM      30.15F                  
GRAND JUNCTION CLOUDY    47  32  56 SE7       30.09F                  
RIFLE          CLOUDY    41  29  62 CALM      30.11F                  
MONTROSE       CLOUDY    42  32  67 CALM      30.12F                  
CORTEZ         LGT RAIN  39  34  82 VRB6      30.13F WCI  35          
PAGE, AZ       NOT AVBL                                               
GRAND CANYON   CLOUDY    39  37  92 E10G18    29.98F WCI  32          
KINGMAN        CLOUDY    48  46  93 NE7       29.90F                  
FLAGSTAFF      LGT RAIN  38  36  92 NE6       29.99F FOG     WCI  33  

$$

REGIONAL REPORTS    NEVADA/IDAHO/WYOMING
  
CITY           SKY/WX    TMP DP  RH WIND       PRES   REMARKS
LAS VEGAS, NV  LGT RAIN  53  45  74 NW9       29.90F                  
ELY            CLOUDY    36  35  96 N10       30.06F WCI  28          
ELKO           MOSUNNY   47  33  58 NE13      30.10F                  
POCATELLO, ID  SUNNY     35  31  85 N6        30.20F WCI  30          
BURLEY         CLOUDY    38  27  64 VRB3      30.21F                  
EVANSTON, WY   CLOUDY    34  26  72 NE8       30.13F WCI  27          
ROCK SPRINGS   CLOUDY    34  28  79 NE3       30.16F                  
KEMMERER       CLOUDY    34  27  75 NE6       30.15F WCI  29          

$$

Return to Home page


Western Regional Climate Center, wrcc@dri.edu